Regional Weather Roundup
Issued by NWS San Angelo, TX

Home | Current Version | Previous Version | Text Only | Print | Product List | Glossary On
Versions: 1 2 3 4 5 6 7 8 9 10 11 12 13 14 15 16 17 18 19 20 21 22 23 24 25 26 27 28 29 30 31 32 33 34 35 36 37 38 39 40 41 42 43 44 45 46 47 48 49 50
000
ASUS44 KSJT 230710
RWRSJT
WEST CENTRAL TEXAS REGIONAL WEATHER ROUNDUP
NATIONAL WEATHER SERVICE SAN ANGELO TX
200 AM CDT SAT AUG 23 2014

NOTE: "FAIR" INDICATES FEW OR NO CLOUDS BELOW 12,000 FEET WITH NO
SIGNIFICANT WEATHER AND/OR OBSTRUCTIONS TO VISIBILITY.

TXZ049-054-064>066-071>073-076>078-098-099-113-114-127-128-139-140-
154-155-168>170-230800
...LOCATIONS ACROSS WEST CENTRAL TEXAS...

CITY           SKY/WX    TMP DP  RH WIND       PRES   REMARKS
SAN ANGELO     CLEAR     81  58  45 S13       30.01R
ABILENE        CLEAR     84  55  36 S16G25    30.00S
DYESS AFB      CLEAR     82  55  39 S15G23    29.99S
JUNCTION       CLEAR     78  62  57 S7        30.04R
SWEETWATER     CLEAR     80  50  35 S15       30.05S
BROWNWOOD      PTCLDY    81  57  44 MISG      30.01S
COLEMAN        SUNNY     76  56  50 S7        30.03R
SONORA         CLEAR     79  61  53 SE10      30.08R
OZONA          FAIR      79  50  36 S12G18    30.06R
BRADY          CLEAR     77  57  50 SE7       30.03S
$$

TEXAS PANHANDLE/OKLAHOMA PANHANDLE

CITY           SKY/WX    TMP DP  RH WIND       PRES   REMARKS
AMARILLO       MOCLDY    73  56  54 S10       30.02F
BORGER         PTCLDY    74  60  61 S6        30.00F
CANADIAN       CLEAR     75  62  62 S3        29.97F
DALHART        CLOUDY    73  59  61 S13       30.04F
DUMAS          CLOUDY    67  64  88 S14       30.00F
GUYMON         NOT AVBL
HEREFORD       CLOUDY    68  64  88 S5        30.04F
PAMPA          SUNNY     65  59  79 S7        30.02F
PERRYTON       CLEAR     72  59  64 SW9       29.98S
$$

SOUTHERN PANHANDLE/SOUTH PLAINS/ROLLING PLAINS

CITY           SKY/WX    TMP DP  RH WIND       PRES   REMARKS
LUBBOCK        CLOUDY    76  59  55 SW9       30.06S
SNYDER         CLEAR     77  53  43 S7        30.03S
CHILDRESS      CLEAR     83  50  31 S13       29.98R
SEMINOLE       CLOUDY    71  67  86 CALM      30.06F
$$

PERMIAN BASIN

CITY           SKY/WX    TMP DP  RH WIND       PRES   REMARKS
MIDLAND        MOCLDY    78  52  40 SE7       30.03S
ODESSA         MOCLDY    79  49  34 S8        30.04F
WINK           CLOUDY    76  67  73 W10       30.02R
$$

FAR WEST/SOUTHWEST MOUNTAINS/TRANS PECOS

CITY           SKY/WX    TMP DP  RH WIND       PRES   REMARKS
ALPINE         CLOUDY    71  64  77 W5        30.19S
DRYDEN           N/A     85  44  23 SE8       29.99R
EL PASO        PTCLDY    72  62  71 SW10      30.08R
FORT STOCKTON  CLOUDY    81  46  29 S12       30.04R
GUADALUPE PASS MOCLDY    67  58  72 SW9       30.20R
MARFA          CLOUDY    66  63  88 W7        30.19S
PECOS          CLOUDY    72  65  78 S8        30.02S
$$

DALLAS/FORT WORTH METROPLEX

CITY           SKY/WX    TMP DP  RH WIND       PRES   REMARKS
DFW AIRPORT    CLEAR     85  67  54 S14       29.96R
FTW MEACHAM    CLEAR     85  66  53 S9        29.96R
DAL-EXECUTIVE  CLEAR     84  68  58 S9        29.97R
GRAND PRAIRIE  CLEAR     84  65  53 SE9       29.98S
ADDISON        CLEAR     87  66  49 S10G18    29.99R
MESQUITE       SUNNY     82  69  65 S7        29.97S
LANCASTER      SUNNY     82  67  60 S9        29.98S
$$

NORTH CENTRAL TEXAS

CITY           SKY/WX    TMP DP  RH WIND       PRES   REMARKS
SHRMAN/DENISON SUNNY     82  68  63 S10       29.98R
GAINESVILLE    CLEAR     76  68  74 SE3       29.98S
BRIDGEPORT     SUNNY     86  62  44 S9        29.98R
DENTON         CLEAR     84  65  52 S9        29.96R
WAXAHACHIE     SUNNY     78  66  66 SE5       30.00R
GRANBURY       SUNNY     85  64  48 S10       29.98S
$$

WESTERN NORTH TEXAS

CITY           SKY/WX    TMP DP  RH WIND       PRES   REMARKS
WICHITA FALLS  CLEAR     76  56  49 S8        29.94S
VERNON         SUNNY     78  46  32 SE7       29.96S
BRECKENRIDGE   SUNNY     83  53  34 S8        29.97S
COMANCHE       CLEAR     83  58  42 S17       30.00F
$$

CENTRAL AND SOUTH CENTRAL TEXAS

CITY           SKY/WX    TMP DP  RH WIND       PRES   REMARKS
AUSTIN/BERGSTM PTCLDY    78  73  84 S8        30.01S
WACO           CLEAR     83  68  60 S12       29.98S
HILLSBORO      SUNNY     83  66  57 S10       29.99R
TEMPLE         CLEAR     81  64  57 S15       29.99S
KILLEEN-GRAY   CLEAR     81  64  57 S10       30.01R
FORT HOOD      CLEAR     84  65  52 S10       30.01R
GEORGETOWN     CLEAR     82  70  65 S14       30.02S
LAGO VISTA     FAIR      79  67  65 S6        30.05R
SAN MARCOS     CLOUDY    79  70  73 S6        30.04S
NEW BRAUNFELS  PTCLDY    77  73  87 S7        30.01S
RANDOLPH AFB   MOCLDY    78  73  84 S9        30.02F
SAN ANTONIO    PTCLDY    79  73  82 S7        30.03S
STINSON        MOCLDY    78  73  84 SE5       30.00S
PLEASANTON     NOT AVBL
LA GRANGE      CLEAR     79  76  92 S5        29.98F
GIDDINGS       SUNNY     78  74  86 S6        30.04S
$$

EAST TEXAS

CITY           SKY/WX    TMP DP  RH WIND       PRES   REMARKS
PARIS          CLEAR     75  66  73 S6        29.99S
CLARKSVILLE    PTSUNNY   76  70  80 CALM      29.99R
TYLER          CLEAR     80  71  74 S10       30.00R
LONGVIEW       CLEAR     77  70  79 S7        29.99S
PALESTINE      SUNNY     80  74  81 S6        30.01S
NACOGDOCHES    CLEAR     75  72  88 S5        30.02R
$$

TEXAS HILL COUNTRY AND EDWARDS PLATEAU

CITY           SKY/WX    TMP DP  RH WIND       PRES   REMARKS
LLANO          SUNNY     82  57  42 S8        30.04S
HORSESHOE BAY  FAIR      79  60  51 S7        30.02R
KERRVILLE      CLEAR     76  65  66 E7        30.06R
FREDERICKSBRG  CLEAR     77  60  56 S8        30.06R
ROCKSPRINGS    SUNNY     75  64  69 SE10      30.09S
HONDO          CLEAR     78  68  71 SE8       30.04R
UVALDE         SUNNY     81  66  60 SE12      30.02R
DEL RIO        CLEAR     85  65  51 SE10      29.96R
$$

SOUTHEAST TEXAS

CITY           SKY/WX    TMP DP  RH WIND       PRES   REMARKS
COLLEGE STN    CLEAR     79  73  82 S8        30.00S
CALDWELL       SUNNY     79  73  83 S5        30.04R
CROCKETT       SUNNY     79  77  94 S3        30.04R
BRENHAM        CLEAR     78  74  88 SE3       30.01S
HUNTSVILLE     CLEAR     79  73  82 S6        30.01F
CONROE         CLEAR     74  72  93 CALM      30.02S
HOUSTON BUSH   CLEAR     79  75  87 S3        30.00F
HOUSTON HOBBY  PTCLDY    78  74  87 SW3       29.99F
PERLAND        CLEAR     78  73  84 CALM      30.01S
WHARTON        SUNNY     74  73  95 CALM      30.01S
$$

THE UPPER TEXAS COAST

CITY           SKY/WX    TMP DP  RH WIND       PRES   REMARKS
ORANGE         SUNNY     77  77 100 CALM      30.01F
PORT ARTHUR    CLEAR     77  75  93 CALM      29.99F
GALVESTON      CLEAR     84  77  79 S13       30.00F
ANGLETON       CLEAR     76  74  93 CALM      29.99F
BAY CITY       SUNNY     79  79 100 CALM      29.99F
$$

TEXAS COASTAL BEND, RIO GRANDE PLAINS DEEP SOUTH TEXAS

CITY           SKY/WX    TMP DP  RH WIND       PRES   REMARKS
VICTORIA       CLEAR     78  75  90 SE6       30.00F
BEEVILLE       FAIR      76  75  96 SE3       30.00S
ROCKPORT       CLEAR     83  77  82 SE7       29.98F
PORT ARANSAS   SUNNY     81  78  90 S7        29.98F
PORT LAVACA    SUNNY     77  74  92 CALM      29.99F
CORPUS CHRISTI PTCLDY    77  73  87 S6        29.98F
KINGSVILLE NAS CLEAR     80  77  90 S6        29.98F
COTULLA        CLEAR     80  67  64 SE10      29.99S
LAREDO         CLEAR     82  70  67 SE13      30.01S
BROWNSVILLE    MOCLDY    81  78  91 SE7       29.99S
PORT ISABEL    PTCLDY    83  77  82 SE9       29.98S
HEBBRONVILLE   SUNNY     78  71  80 SE8       30.01F
MCALLEN        CLEAR     81  75  82 SE5       29.99F
WESLACO        PTCLDY    80  74  81 S3        29.98F
FALFURRIAS     SUNNY     77  72  84 CALM      29.98F
EDINBURG       SUNNY     80  74  83 SE5       29.99F
$$


USA.gov is the U.S. government's official web portal to all federal, state and local government web resources and services.